Flag for Denmark Weather past 2 weeks in Horsens, Denmark

Now
46 °F

Partly sunny.


Feels Like: 43 °F
Forecast: 36 / 46 °F
Wind: 7 mph from Northwest

Location: Billund Lufthavn

Current Time: Mar 27, 2015 at 5:43:18 PM

Latest Report: Mar 27, 2015 at 4:50 PM


Visibility: N/A

Pressure: 29.92 "Hg

Humidity: 57%

Dew point: 32 °F

Location of HorsensLocation

Historic Weather in Horsens — Graph

°F

Horsens temperature yesterday

Maximum temperature yesterday: 45 °F (at 2:20 PM)
Minimum temperature yesterday: 37 °F (at 6:50 AM)
Average temperature yesterday: 41 °F

Past Weeks' High & Low Weather Summary

 TemperatureHumidityPressure
High55 °F (Mar 19, 1:50 PM)100% (Mar 19, 11:50 PM)30.60 "Hg (Mar 19, 11:50 PM)
Low21 °F (Mar 22, 5:50 AM)28% (Mar 19, 4:20 PM)29.62 "Hg (Mar 26, 2:50 AM)
Average40 °F78%30.21 "Hg
* Reported Mar 12 4:20 PM — Mar 27 4:20 PM, Horsens, Weather by CustomWeather, © 2015

Note: Actual official high and low records may vary slightly from our data, if they occured in-between our weather recording intervals... More about our weather records

Advertising

Horsens weather history for previous 24 hours

 ConditionsComfort  
Time TempWeatherWind HumidityBarometerVisibility
4:20 PM
Fri, Mar 27
46 °FPartly sunny.6 mph62%29.92 "HgN/A
3:50 PM45 °FBroken clouds.6 mph61%29.92 "HgN/A
3:20 PM45 °FBroken clouds.5 mph61%29.89 "HgN/A
2:50 PM45 °FBroken clouds.7 mph71%29.89 "HgN/A
2:20 PM45 °FPartly sunny.5 mph66%29.86 "HgN/A
1:50 PM45 °FPartly sunny.3 mph76%29.86 "HgN/A
1:20 PM43 °FPartly sunny.2 mph76%29.86 "HgN/A
12:50 PM43 °FPartly sunny.3 mph76%29.86 "HgN/A
12:20 PM43 °FBroken clouds.3 mph76%29.83 "HgN/A
11:50 AM43 °FPartly sunny.3 mph76%29.83 "HgN/A
11:20 AM43 °FPartly sunny.3 mph81%29.83 "HgN/A
10:50 AM41 °FPartly sunny.6 mph81%29.80 "HgN/A
10:20 AM41 °FPartly sunny.6 mph81%29.80 "HgN/A
9:50 AM41 °FDrizzle. Partly sunny.6 mph87%29.80 "HgN/A
9:20 AM39 °FLight rain. Partly sunny.6 mph93%29.77 "HgN/A
8:50 AM39 °FLight rain. Partly sunny.6 mph87%29.77 "HgN/A
8:20 AM39 °FLight rain. Partly sunny.6 mph87%29.77 "HgN/A
7:50 AM39 °FLight rain. Partly sunny.6 mph87%29.77 "HgN/A
7:20 AM39 °FPartly sunny.6 mph87%29.74 "HgN/A
6:50 AM37 °FPartly sunny.7 mph93%29.74 "HgN/A
6:20 AM37 °FPartly sunny.7 mph93%29.71 "HgN/A
5:50 AM37 °FPassing clouds.7 mph93%29.71 "HgN/A
5:20 AM37 °FPassing clouds.7 mph93%29.71 "HgN/A
4:50 AM39 °FPassing clouds.7 mph81%29.71 "HgN/A
4:20 AM39 °FPassing clouds.7 mph81%29.71 "HgN/A
3:50 AM39 °FPassing clouds.8 mph81%29.68 "HgN/A
3:20 AM37 °FPartly cloudy.7 mph87%29.68 "HgN/A
2:50 AM37 °FPartly cloudy.7 mph87%29.68 "HgN/A
2:20 AM37 °FPartly cloudy.7 mph87%29.68 "HgN/A
1:50 AM37 °FMostly cloudy.6 mph87%29.68 "HgN/A
1:20 AM37 °FMostly cloudy.6 mph87%29.68 "HgN/A
12:50 AM37 °FClear.3 mph87%29.68 "Hg10 mi
12:20 AM37 °FClear.5 mph87%29.68 "Hg10 mi
11:50 PM
Thu, Mar 26
37 °FClear.5 mph87%29.68 "Hg10 mi
11:20 PM37 °FClear.6 mph87%29.68 "Hg10 mi
10:50 PM37 °FClear.5 mph87%29.68 "Hg10 mi
10:20 PM37 °FOvercast.3 mph87%29.68 "HgN/A
9:50 PM39 °FOvercast.5 mph81%29.68 "HgN/A
9:20 PM39 °FOvercast.5 mph81%29.71 "HgN/A
8:50 PM39 °FOvercast.3 mph81%29.71 "HgN/A
8:20 PM39 °FOvercast.2 mph81%29.71 "HgN/A
7:50 PM41 °FPartly cloudy.2 mph76%29.71 "HgN/A
7:20 PM41 °FPassing clouds.6 mph76%29.71 "HgN/A
6:50 PM41 °FPassing clouds.5 mph70%29.68 "HgN/A
6:20 PM43 °FPartly sunny.7 mph66%29.68 "HgN/A
5:50 PM43 °FBroken clouds.5 mph66%29.68 "HgN/A
5:20 PM43 °FBroken clouds.8 mph66%29.68 "HgN/A
Weather by CustomWeather, © 2015

See weather overviewHow to use our weather pages